Agassiz, British Columbia

6:23 PM PST on January 19, 2017 (GMT -0800)
Agassiz

Weather History for CWZA - February, 2013

Change the Weather History Date:

Tuesday, February 19, 2013

  Actual Average Record
Temperature  
Mean Temperature 42 °F -  
Max Temperature 50 °F 50 °F - ()
Min Temperature 33 °F 36 °F - ()
Degree Days  
Heating Degree Days 24    
Moisture  
Dew Point 30 °F    
Average Humidity 66    
Maximum Humidity 92    
Minimum Humidity 45    
Precipitation  
Precipitation 0.00 in 0.21 in - ()
Sea Level Pressure  
Sea Level Pressure 29.87 in    
Wind  
Wind Speed 4 mph ()    
Max Wind Speed 12 mph    
Max Gust Speed 21 mph    
T = Trace of Precipitation, MM = Missing Value Source: Averaged Metar Reports

Daily Weather History Graph

Daily Weather History Graph

Search for Another Location

Airport or City:

Trip Planner

Search our weather history database for the weather conditions in past years. The results will help you decide how hot, cold, wet, or windy it might be!

Date:

Astronomy

Feb. 19, 2013 Rise Set
Actual Time 7:08 AM PST 5:34 PM PST
Civil Twilight 6:35 AM PST 6:06 PM PST
Nautical Twilight 5:58 AM PST 6:44 PM PST
Astronomical Twilight 5:21 AM PST 7:20 PM PST
Moon 11:53 AM PST (2/19) 3:01 AM PST (2/19)
Length of Visible Light 11h 31m
Length of Day
10h 26m
Waxing Gibbous, 68% of the Moon is Illuminated
Feb 19
Waxing Gibbous
Feb 25
Full
Mar 4
Last Quarter
Mar 11
New
Mar 19
First Quarter

Hourly Weather History & Observations

Time (PST) Temp. Windchill Dew Point Humidity Pressure Visibility Wind Dir Wind Speed Gust Speed Precip Events Conditions
1:00 AM 33.1 °F - 31.1 °F 92% 29.81 in - SW 1.2 mph - N/A   Unknown
2:00 AM 35.8 °F 33.0 °F 33.1 °F 90% 29.81 in - NE 3.5 mph - N/A   Unknown
3:00 AM 36.7 °F 32.9 °F 31.8 °F 83% 29.81 in - NE 4.6 mph - N/A   Unknown
4:00 AM 36 °F - 31 °F 76% 29.81 in - NNE 5.8 mph - -  
4:00 AM 36.5 °F 31.8 °F 31.1 °F 81% 29.81 in - NNE 5.8 mph - N/A   Unknown
5:00 AM 35.2 °F - 30.6 °F 83% 29.82 in - NW 2.3 mph - N/A   Unknown
6:00 AM 36.9 °F 32.2 °F 30.4 °F 77% 29.83 in - North 5.8 mph - N/A   Unknown
7:00 AM 36.7 °F 32.9 °F 30.6 °F 78% 29.84 in - NNE 4.6 mph - N/A   Unknown
8:00 AM 37.4 °F 34.9 °F 28.9 °F 71% 29.86 in - North 3.5 mph - N/A   Unknown
9:00 AM 38.8 °F 33.2 °F 27.7 °F 64% 29.85 in - NNW 8.1 mph - N/A   Unknown
10:00 AM 41 °F - 29 °F 50% 29.86 in - NW 9.2 mph - -  
10:00 AM 40.8 °F 35.0 °F 28.6 °F 62% 29.86 in - NW 9.2 mph - N/A   Unknown
11:00 AM 43.3 °F 38.6 °F 30.4 °F 60% 29.85 in - NW 8.1 mph - N/A   Unknown
12:00 PM 45.7 °F 41.5 °F 30.6 °F 56% 29.86 in - NW 8.1 mph 20.7 mph N/A   Unknown
1:00 PM 46.0 °F 41.0 °F 29.7 °F 53% 29.85 in - NW 10.4 mph - N/A   Unknown
2:00 PM 48.7 °F - 28.6 °F 46% 29.85 in - NNW 5.8 mph - N/A   Unknown
3:00 PM 49.6 °F - 29.1 °F 45% 29.86 in - NNW 5.8 mph - N/A   Unknown
5:00 PM 48.2 °F - 29.3 °F 48% 29.88 in - WNW 2.3 mph - N/A   Unknown
6:00 PM 38.3 °F - 31.3 °F 76% 29.90 in - WNW 1.2 mph - N/A   Unknown
7:00 PM 44.4 °F 42.0 °F 28.9 °F 55% 29.91 in - NNW 4.6 mph - N/A   Unknown
8:00 PM 38.7 °F - 29.8 °F 71% 29.94 in - SW 2.3 mph - N/A   Unknown
9:00 PM 40.1 °F - 28.4 °F 63% 29.96 in - North 2.3 mph - N/A   Unknown
10:00 PM 40 °F - 27 °F 48% 29.98 in - North 5.8 mph - -  
10:00 PM 40.3 °F 36.3 °F 27.1 °F 59% 29.98 in - North 5.8 mph - N/A   Unknown
11:00 PM 38.8 °F 31.6 °F 27.1 °F 63% 30.00 in - NNE 11.5 mph - N/A   Unknown